Powrót do katalogu

TITAN 34D TRANSTAGE DEB

AktywnyGTO
NORAD 22668·DEBRIS·🇺🇸 United States

Wystrzelony Sep 2, 1988 z Cape Canaveral Space Force Station

Loading…

TLE

Starzejące sięSource: Space-Track

Epoka: Sep 14, 2026, 03:57 UTC

1 22668U 88077D   26257.16512570  .00001232  00000-0  12421-2 0  9993
2 22668  26.3033 144.4921 7346448  96.5274 343.5635  2.16454278 57108

Śledź TITAN 34D TRANSTAGE DEB w czasie rzeczywistym z AllMySat

Download on the App Store